Weather History for KPWT - January, 2013

Change the Weather History Date:

Friday, January 4, 2013

  Actual Average (KSEA) Record (KSEA)
Temperature  
Mean Temperature 40 °F 41 °F  
Max Temperature 46 °F 46 °F 61 °F (1984)
Min Temperature 33 °F 36 °F 14 °F (1950)
Degree Days  
Heating Degree Days 26 24  
Month to date heating degree days 96  
Since 1 July heating degree days 2034  
Cooling Degree Days 0 0  
Month to date cooling degree days 0  
Year to date cooling degree days 0  
Moisture  
Dew Point 36 °F    
Average Humidity 86    
Maximum Humidity 93    
Minimum Humidity 76    
Precipitation  
Precipitation 0.10 in 0.19 in 1.56 in (1967)
Month to date precipitation 0.74  
Year to date precipitation 0.74  
Snow  
Snow 0.00 in - 5.90 in (1967)
Month to date snowfall  
Since 1 July snowfall  
Snow Depth -    
Sea Level Pressure  
Sea Level Pressure 30.25 in    
Wind  
Wind Speed 7 mph (South)    
Max Wind Speed 14 mph    
Max Gust Speed 18 mph    
Visibility 6 miles    
Events      
T = Trace of Precipitation, MM = Missing Value Source: NWS Daily Summary

Daily Weather History Graph

Daily Weather History Graph

Search for Another Location

Airport or City:

Trip Planner

Search our weather history database for the weather conditions in past years. The results will help you decide how hot, cold, wet, or windy it might be!

Date:

Astronomy

Jan. 04, 2013 Rise Set
Actual Time 7:58 AM PST 4:34 PM PST
Civil Twilight 7:23 AM PST 5:09 PM PST
Nautical Twilight 6:44 AM PST 5:48 PM PST
Astronomical Twilight 6:06 AM PST 6:25 PM PST
Moon No Moon Rise 11:11 AM PST
Length of Visible Light 9h 46m
Length of Day
8h 35m
Waning Gibbous, 54% of the Moon is Illuminated
Jan 4
Waning Gibbous
Jan 4
Last Quarter
Jan 11
New
Jan 18
First Quarter
Jan 26
Full

Hourly Weather History & Observations

Time (PST) Temp. Windchill Dew Point Humidity Pressure Visibility Wind Dir Wind Speed Gust Speed Precip Events Conditions
12:15 AM 35.6 °F 30.7 °F 32.0 °F 87% 30.19 in 5.0 mi South 5.8 mph - N/A   Overcast
12:35 AM 35.6 °F 31.7 °F 32.0 °F 87% 30.18 in 3.0 mi South 4.6 mph - 0.01 in   Overcast
12:55 AM 35.6 °F 32.8 °F 33.8 °F 93% 30.18 in 2.0 mi SSW 3.5 mph - 0.01 in   Overcast
1:15 AM 37.4 °F 33.8 °F 33.8 °F 87% 30.20 in 2.0 mi SSW 4.6 mph - 0.02 in   Overcast
1:35 AM 37.4 °F 30.3 °F 33.8 °F 87% 30.21 in 2.5 mi SSW 10.4 mph - 0.02 in   Overcast
1:55 AM 37.4 °F 30.3 °F 35.6 °F 93% 30.21 in 4.0 mi SSW 10.4 mph - 0.03 in   Overcast
2:15 AM 37.4 °F 30.8 °F 35.6 °F 93% 30.22 in 7.0 mi SSW 9.2 mph - 0.01 in   Overcast
2:35 AM 39.2 °F 32.5 °F 35.6 °F 87% 30.24 in 9.0 mi South 10.4 mph - 0.01 in   Overcast
2:55 AM 39.2 °F 32.0 °F 35.6 °F 87% 30.23 in 6.0 mi South 11.5 mph - 0.01 in   Overcast
3:15 AM 39.2 °F 32.0 °F 35.6 °F 87% 30.24 in 3.0 mi South 11.5 mph - N/A   Overcast
3:35 AM 39.2 °F 32.0 °F 35.6 °F 87% 30.24 in 5.0 mi South 11.5 mph - N/A   Overcast
3:55 AM 39.2 °F 32.0 °F 35.6 °F 87% 30.23 in 6.0 mi South 11.5 mph - N/A   Overcast
4:15 AM 39.2 °F 31.6 °F 37.4 °F 93% 30.24 in 5.0 mi South 12.7 mph - N/A   Overcast
4:35 AM 39.2 °F 32.5 °F 35.6 °F 87% 30.25 in 4.0 mi South 10.4 mph - N/A   Overcast
5:15 AM 39.2 °F 33.6 °F 35.6 °F 87% 30.25 in 3.0 mi SSW 8.1 mph - N/A   Overcast
5:35 AM 39.2 °F 34.2 °F 35.6 °F 87% 30.27 in 3.0 mi SSW 6.9 mph - 0.01 in   Overcast
5:55 AM 39.2 °F 34.2 °F 35.6 °F 87% 30.27 in 2.5 mi SSW 6.9 mph - 0.01 in   Overcast
6:15 AM 39.2 °F 34.2 °F 35.6 °F 87% 30.27 in 4.0 mi South 6.9 mph - 0.02 in   Overcast
6:35 AM 39.2 °F 35.9 °F 35.6 °F 87% 30.28 in 3.0 mi South 4.6 mph - 0.02 in   Overcast
6:55 AM 39.2 °F 34.2 °F 35.6 °F 87% 30.28 in 3.0 mi South 6.9 mph - 0.03 in   Overcast
7:15 AM 39.2 °F 35.0 °F 35.6 °F 87% 30.29 in 2.5 mi South 5.8 mph - 0.01 in   Overcast
7:35 AM 39.2 °F 33.0 °F 35.6 °F 87% 30.29 in 2.0 mi South 9.2 mph - 0.01 in   Overcast
7:55 AM 39.2 °F 32.5 °F 35.6 °F 87% 30.28 in 2.5 mi South 10.4 mph - 0.01 in   Overcast
8:15 AM 39.2 °F 33.0 °F 35.6 °F 87% 30.30 in 1.2 mi SSW 9.2 mph - N/A   Overcast
8:35 AM 39.2 °F 33.6 °F 35.6 °F 87% 30.31 in 1.5 mi SSW 8.1 mph - N/A   Overcast
8:55 AM 39.2 °F 33.6 °F 35.6 °F 87% 30.31 in 1.0 mi South 8.1 mph - N/A   Overcast
9:15 AM 39.2 °F 33.6 °F 37.4 °F 93% 30.32 in 1.0 mi South 8.1 mph - N/A   Overcast
9:35 AM 39.2 °F 33.6 °F 37.4 °F 93% 30.31 in 1.5 mi South 8.1 mph - N/A   Overcast
9:55 AM 41.0 °F 34.7 °F 37.4 °F 87% 30.33 in 2.0 mi South 10.4 mph - N/A   Overcast
10:15 AM 41.0 °F 34.3 °F 37.4 °F 87% 30.32 in 2.0 mi South 11.5 mph - N/A   Overcast
10:35 AM 42.8 °F 35.8 °F 37.4 °F 81% 30.32 in 1.8 mi South 13.8 mph - N/A   Overcast
10:55 AM 42.8 °F 35.8 °F 39.2 °F 87% 30.32 in 4.0 mi South 13.8 mph - N/A   Overcast
11:15 AM 42.8 °F 36.2 °F 39.2 °F 87% 30.31 in 5.0 mi South 12.7 mph - N/A   Overcast
11:35 AM 42.8 °F 35.8 °F 39.2 °F 87% 30.31 in 9.0 mi South 13.8 mph - N/A   Overcast
11:55 AM 42.8 °F 36.2 °F 39.2 °F 87% 30.31 in 10.0 mi South 12.7 mph 18.4 mph N/A   Overcast
12:15 PM 44.6 °F 40.2 °F 39.2 °F 81% 30.29 in 10.0 mi South 8.1 mph - N/A   Overcast
12:35 PM 44.6 °F 38.4 °F 39.2 °F 81% 30.30 in 10.0 mi South 12.7 mph - N/A   Mostly Cloudy
12:55 PM 44.6 °F 39.7 °F 39.2 °F 81% 30.29 in 10.0 mi SSW 9.2 mph - N/A   Overcast
1:15 PM 46.4 °F 41.1 °F 41.0 °F 81% 30.28 in 10.0 mi SSW 11.5 mph - N/A   Mostly Cloudy
1:35 PM 46.4 °F 43.5 °F 39.2 °F 76% 30.29 in 10.0 mi South 5.8 mph - N/A   Mostly Cloudy
1:55 PM 46.4 °F 42.9 °F 41.0 °F 81% 30.28 in 10.0 mi South 6.9 mph - N/A   Overcast
2:15 PM 46.4 °F 45.2 °F 39.2 °F 76% 30.27 in 10.0 mi SSW 3.5 mph - N/A   Mostly Cloudy
2:35 PM 46.4 °F 44.3 °F 39.2 °F 76% 30.28 in 10.0 mi South 4.6 mph - N/A   Mostly Cloudy
2:55 PM 46.4 °F 44.3 °F 39.2 °F 76% 30.27 in 10.0 mi South 4.6 mph - N/A   Mostly Cloudy
3:15 PM 46.4 °F 44.3 °F 39.2 °F 76% 30.28 in 10.0 mi South 4.6 mph - N/A   Partly Cloudy
3:35 PM 44.6 °F 43.1 °F 39.2 °F 81% 30.29 in 10.0 mi SW 3.5 mph - N/A   Clear
3:55 PM 44.6 °F - 37.4 °F 76% 30.28 in 10.0 mi Calm Calm - N/A   Clear
4:15 PM 42.8 °F 41.1 °F 37.4 °F 81% 30.26 in 10.0 mi ENE 3.5 mph - N/A   Clear
4:35 PM 39.2 °F - 35.6 °F 87% 30.26 in 10.0 mi Calm Calm - N/A   Clear
4:55 PM 39.2 °F - 35.6 °F 87% 30.26 in 10.0 mi Calm Calm - N/A   Clear
5:15 PM 37.4 °F - 35.6 °F 93% 30.25 in 9.0 mi Calm Calm - N/A   Clear
5:35 PM 37.4 °F - 33.8 °F 87% 30.24 in 10.0 mi Calm Calm - N/A   Clear
5:55 PM 37.4 °F - 33.8 °F 87% 30.25 in 7.0 mi Calm Calm - N/A   Clear
6:15 PM 35.6 °F - 30.2 °F 81% 30.23 in 1.0 mi Calm Calm - N/A   Clear
6:35 PM 33.8 °F - 30.2 °F 87% 30.24 in 0.5 mi Calm Calm - N/A   Mostly Cloudy
6:55 PM 33.8 °F - 30.2 °F 87% 30.23 in 0.5 mi Calm Calm - N/A   Overcast
7:15 PM 35.6 °F - 32.0 °F 87% 30.23 in 0.5 mi Calm Calm - N/A   Overcast
7:35 PM 37.4 °F - 33.8 °F 87% 30.22 in 3.0 mi Calm Calm - N/A   Overcast
7:55 PM 37.4 °F - 33.8 °F 87% 30.22 in 8.0 mi Calm Calm - N/A   Mostly Cloudy
8:15 PM 37.4 °F - 33.8 °F 87% 30.21 in 2.0 mi Calm Calm - N/A   Mostly Cloudy
8:35 PM 37.4 °F - 33.8 °F 87% 30.21 in 10.0 mi Calm Calm - N/A   Partly Cloudy
8:55 PM 37.4 °F - 33.8 °F 87% 30.20 in 5.0 mi Calm Calm - N/A   Clear
9:15 PM 37.4 °F - 33.8 °F 87% 30.20 in 7.0 mi Calm Calm - N/A   Mostly Cloudy
9:35 PM 37.4 °F - 33.8 °F 87% 30.20 in 8.0 mi Calm Calm - N/A   Overcast
9:55 PM 35.6 °F - 33.8 °F 93% 30.20 in 7.0 mi Calm Calm - N/A   Scattered Clouds
10:15 PM 37.4 °F - 33.8 °F 87% 30.21 in 3.0 mi Calm Calm - N/A   Scattered Clouds
10:35 PM 37.4 °F - 35.6 °F 93% 30.19 in 9.0 mi Calm Calm - N/A   Overcast
10:55 PM 37.4 °F - 33.8 °F 87% 30.19 in 5.0 mi Calm Calm - N/A   Mostly Cloudy
11:15 PM 37.4 °F 34.9 °F 33.8 °F 87% 30.18 in 6.0 mi SW 3.5 mph - N/A   Mostly Cloudy
11:35 PM 37.4 °F - 35.6 °F 93% 30.20 in 7.0 mi Calm Calm - N/A   Overcast
11:55 PM 37.4 °F - 35.6 °F 93% 30.19 in 7.0 mi Calm Calm - N/A   Mostly Cloudy